�������l�o���
Date,Time,MP-1(��Sv/h),MP-2(��Sv/h),MP-3(��Sv/h),MP-4(��Sv/h),MP-5(��Sv/h),MP-6(��Sv/h),MP-7(��Sv/h),MP-8(��Sv/h),����,����(m/s),���J
2016/10/14,00:00,1.157,1.939,1.358,2.126,1.490,0.599,1.070,0.985,���k��,5.5,��
2016/10/14,00:10,1.157,1.937,1.355,2.124,1.489,0.599,1.068,0.985,��,5.8,��
2016/10/14,00:20,1.157,1.937,1.355,2.129,1.491,0.600,1.067,0.984,��,5.2,��
2016/10/14,00:30,1.155,1.939,1.358,2.129,1.494,0.600,1.069,0.986,��,5.2,��
2016/10/14,00:40,1.158,1.936,1.354,2.128,1.493,0.601,1.067,0.983,���k��,5.6,��
2016/10/14,00:50,1.158,1.938,1.356,2.128,1.492,0.599,1.068,0.985,�k��,5.5,��
2016/10/14,01:00,1.156,1.936,1.355,2.127,1.494,0.600,1.068,0.983,�k��,5.3,��
2016/10/14,01:10,1.157,1.938,1.357,2.128,1.493,0.602,1.068,0.985,�k��,4.9,��
2016/10/14,01:20,1.157,1.937,1.353,2.130,1.494,0.599,1.068,0.984,�k��,4.9,��
2016/10/14,01:30,1.156,1.939,1.354,2.128,1.491,0.598,1.068,0.985,�k��,5.5,��
2016/10/14,01:40,1.157,1.937,1.356,2.128,1.493,0.600,1.066,0.986,�k��,6.1,��
2016/10/14,01:50,1.158,1.936,1.356,2.128,1.493,0.599,1.066,0.983,�k��,6.0,��
2016/10/14,02:00,1.156,1.937,1.356,2.129,1.491,0.600,1.068,0.986,�k��,6.1,��
2016/10/14,02:10,1.157,1.938,1.355,2.127,1.491,0.598,1.067,0.984,�k��,6.7,��
2016/10/14,02:20,1.155,1.939,1.357,2.127,1.493,0.598,1.068,0.983,�k��,6.6,��
2016/10/14,02:30,1.154,1.938,1.356,2.128,1.490,0.599,1.068,0.985,�k��,5.5,��
2016/10/14,02:40,1.154,1.939,1.356,2.125,1.491,0.599,1.068,0.985,�k��,5.0,��
2016/10/14,02:50,1.157,1.938,1.356,2.128,1.490,0.600,1.066,0.983,�k��,4.9,��
2016/10/14,03:00,1.155,1.937,1.355,2.126,1.492,0.599,1.068,0.985,���k��,4.6,��
2016/10/14,03:10,1.156,1.938,1.354,2.125,1.490,0.597,1.068,0.984,���k��,5.3,��
2016/10/14,03:20,1.156,1.937,1.355,2.129,1.492,0.599,1.067,0.984,�k��,5.5,��
2016/10/14,03:30,1.156,1.934,1.355,2.124,1.493,0.599,1.068,0.982,���k��,6.1,��
2016/10/14,03:40,1.157,1.935,1.356,2.129,1.489,0.598,1.066,0.986,���k��,6.1,��
2016/10/14,03:50,1.157,1.936,1.355,2.131,1.492,0.599,1.066,0.984,���k��,5.8,��
2016/10/14,04:00,1.155,1.938,1.353,2.127,1.493,0.598,1.067,0.984,���k��,6.4,��
2016/10/14,04:10,1.155,1.935,1.352,2.126,1.490,0.598,1.068,0.985,���k��,4.2,��
2016/10/14,04:20,1.157,1.937,1.356,2.127,1.490,0.598,1.066,0.984,�k��,4.2,��
2016/10/14,04:30,1.157,1.937,1.354,2.128,1.491,0.599,1.067,0.984,�k��,4.7,��
2016/10/14,04:40,1.156,1.937,1.355,2.131,1.492,0.599,1.067,0.983,�k��,6.0,��
2016/10/14,04:50,1.154,1.935,1.356,2.128,1.491,0.599,1.068,0.983,�k��,5.2,��
2016/10/14,05:00,1.154,1.934,1.356,2.129,1.490,0.599,1.067,0.986,�k��,5.5,��
2016/10/14,05:10,1.155,1.937,1.354,2.128,1.491,0.598,1.068,0.985,�k��,5.8,��
2016/10/14,05:20,1.157,1.934,1.356,2.125,1.489,0.598,1.067,0.984,�k��,5.6,��
2016/10/14,05:30,1.155,1.937,1.355,2.124,1.489,0.597,1.067,0.985,�k��,5.6,��
2016/10/14,05:40,1.155,1.937,1.356,2.129,1.490,0.599,1.066,0.984,���k��,4.9,��
2016/10/14,05:50,1.155,1.935,1.353,2.129,1.490,0.598,1.068,0.984,���k��,4.1,��
2016/10/14,06:00,1.154,1.937,1.356,2.126,1.492,0.598,1.067,0.984,��,1.6,��
2016/10/14,06:10,1.152,1.935,1.354,2.125,1.489,0.597,1.067,0.984,���k��,1.2,��
2016/10/14,06:20,1.155,1.935,1.352,2.124,1.493,0.597,1.068,0.984,���k��,2.8,��
2016/10/14,06:30,1.153,1.935,1.352,2.125,1.489,0.596,1.065,0.986,���k��,3.8,��
2016/10/14,06:40,1.154,1.938,1.353,2.129,1.491,0.597,1.067,0.984,���k��,5.2,��
2016/10/14,06:50,1.159,1.935,1.358,2.126,1.489,0.597,1.067,0.984,���k��,6.3,��
2016/10/14,07:00,1.154,1.934,1.357,2.126,1.493,0.598,1.066,0.986,�k��,6.0,��
2016/10/14,07:10,1.154,1.935,1.356,2.133,1.487,0.596,1.068,0.983,�k��,5.3,��
2016/10/14,07:20,1.155,1.936,1.355,2.129,1.486,0.599,1.067,0.984,�k��,5.8,��
2016/10/14,07:30,1.157,1.937,1.353,2.130,1.490,0.597,1.068,0.985,�k��,6.1,��
2016/10/14,07:40,1.157,1.937,1.355,2.130,1.491,0.598,1.068,0.985,�k��,6.3,��
2016/10/14,07:50,1.156,1.937,1.356,2.131,1.494,0.599,1.065,0.985,�k��,6.0,��
2016/10/14,08:00,1.155,1.934,1.353,2.129,1.489,0.601,1.069,0.985,�k��,6.3,��
2016/10/14,08:10,1.158,1.932,1.355,2.129,1.491,0.598,1.068,0.986,�k��,6.0,��
2016/10/14,08:20,1.156,1.936,1.343,2.132,1.495,0.598,1.066,0.985,�k��,5.5,��
2016/10/14,08:30,1.158,1.935,1.308,2.131,1.493,0.599,1.066,0.986,�k��,4.5,��
2016/10/14,08:40,1.157,1.937,1.345,2.129,1.493,0.599,1.066,0.987,�k��,2.8,��
2016/10/14,08:50,1.155,1.935,1.352,2.134,1.493,0.599,1.068,0.986,�k��,2.8,��
2016/10/14,09:00,1.152,1.938,1.354,2.132,1.492,0.599,1.068,0.987,���k��,2.5,��
2016/10/14,09:10,1.154,1.938,1.340,2.134,1.494,0.599,1.070,0.987,�k��,1.5,��
2016/10/14,09:20,1.154,1.937,1.354,2.135,1.494,0.601,1.067,0.987,�k�k��,1.8,��
2016/10/14,09:30,1.154,1.934,1.350,2.136,1.494,0.601,1.067,0.988,�k,1.7,��
2016/10/14,09:40,1.154,1.933,1.352,2.135,1.496,0.601,1.068,0.988,�k�k��,1.1,��
2016/10/14,09:50,1.154,1.931,1.347,2.134,1.492,0.602,1.068,0.987,�k��,1.0,��
2016/10/14,10:00,1.153,1.936,1.348,2.135,1.495,0.598,1.066,0.987,���k��,2.6,��
2016/10/14,10:10,1.150,1.937,1.344,2.133,1.495,0.600,1.066,0.985,��,2.5,��
2016/10/14,10:20,1.148,1.936,1.348,2.134,1.497,0.595,1.068,0.985,��,1.9,��
2016/10/14,10:30,1.151,1.938,1.345,2.135,1.497,0.591,1.071,0.983,���쓌,2.5,��
2016/10/14,10:40,1.150,1.942,1.350,2.139,1.498,0.598,1.068,0.983,���쓌,2.1,��
2016/10/14,10:50,1.152,1.942,1.348,2.139,1.495,0.597,1.069,0.985,�쓌,2.3,��
2016/10/14,11:00,1.151,1.943,1.349,2.138,1.497,0.598,1.070,0.984,���쓌,3.8,��
2016/10/14,11:10,1.154,1.943,1.353,2.137,1.498,0.599,1.069,0.984,��,3.2,��
2016/10/14,11:20,1.151,1.946,1.355,2.136,1.498,0.599,1.070,0.985,���쓌,3.2,��
2016/10/14,11:30,1.152,1.942,1.354,2.140,1.496,0.600,1.071,0.983,���쓌,3.1,��
2016/10/14,11:40,1.156,1.943,1.355,2.139,1.500,0.602,1.072,0.984,�쓌,4.1,��
2016/10/14,11:50,1.159,1.945,1.356,2.138,1.501,0.599,1.071,0.986,���쓌,4.6,��
2016/10/14,12:00,1.158,1.944,1.355,2.140,1.499,0.602,1.069,0.986,���쓌,4.1,��
2016/10/14,12:10,1.159,1.945,1.354,2.139,1.504,0.602,1.070,0.984,�쓌,3.5,��
2016/10/14,12:20,1.155,1.946,1.353,2.139,1.503,0.604,1.070,0.985,���쓌,4.4,��
2016/10/14,12:30,1.142,1.945,1.354,2.139,1.504,0.601,1.071,0.985,���쓌,3.6,��
2016/10/14,12:40,1.152,1.944,1.357,2.140,1.506,0.601,1.070,0.983,�쓌,4.4,��
2016/10/14,12:50,1.152,1.940,1.353,2.140,1.503,0.602,1.071,0.984,���쓌,3.9,��
2016/10/14,13:00,1.153,1.943,1.354,2.142,1.504,0.603,1.071,0.984,�쓌,4.2,��
2016/10/14,13:10,1.152,1.938,1.355,2.138,1.504,0.604,1.069,0.981,���쓌,3.1,��
2016/10/14,13:20,1.154,1.940,1.356,2.141,1.505,0.602,1.069,0.982,���쓌,3.3,��
2016/10/14,13:30,1.151,1.944,1.356,2.139,1.506,0.601,1.072,0.984,���쓌,2.5,��
2016/10/14,13:40,1.152,1.950,1.353,2.142,1.509,0.600,1.072,0.986,�쓌,3.5,��
2016/10/14,13:50,1.154,1.951,1.357,2.139,1.509,0.599,1.071,0.985,�쓌,3.0,��
2016/10/14,14:00,1.153,1.951,1.357,2.140,1.506,0.600,1.072,0.985,��쓌,3.8,��
2016/10/14,14:10,1.153,1.950,1.358,2.143,1.506,0.600,1.072,0.984,��쓌,3.6,��
2016/10/14,14:20,1.156,1.952,1.358,2.141,1.509,0.601,1.071,0.985,��쓌,3.8,��
2016/10/14,14:30,1.156,1.949,1.360,2.144,1.509,0.602,1.073,0.984,��쓌,4.6,��
2016/10/14,14:40,1.154,1.950,1.360,2.144,1.506,0.602,1.072,0.984,��쓌,3.8,��
2016/10/14,14:50,1.154,1.949,1.359,2.139,1.505,0.602,1.073,0.986,��쓌,3.5,��
2016/10/14,15:00,1.154,1.949,1.361,2.141,1.510,0.604,1.071,0.984,��쓌,3.4,��
2016/10/14,15:10,1.153,1.945,1.361,2.140,1.505,0.602,1.071,0.985,�쓌,3.5,��
2016/10/14,15:20,1.155,1.947,1.362,2.141,1.510,0.601,1.072,0.983,��쓌,4.4,��
2016/10/14,15:30,1.155,1.945,1.360,2.144,1.506,0.602,1.071,0.982,��쓌,3.6,��
2016/10/14,15:40,1.158,1.951,1.359,2.142,1.509,0.603,1.072,0.984,��쓌,3.8,��
2016/10/14,15:50,1.155,1.951,1.361,2.143,1.510,0.604,1.073,0.983,��쓌,4.1,��
2016/10/14,16:00,1.155,1.949,1.361,2.137,1.508,0.603,1.073,0.984,�쓌,3.8,��
2016/10/14,16:10,1.158,1.947,1.362,2.138,1.510,0.603,1.071,0.986,��쓌,3.6,��
2016/10/14,16:20,1.156,1.948,1.360,2.142,1.510,0.604,1.072,0.989,��쓌,4.4,��
2016/10/14,16:30,1.157,1.950,1.361,2.141,1.509,0.604,1.072,0.988,��쓌,3.4,��
2016/10/14,16:40,1.156,1.954,1.360,2.143,1.507,0.604,1.074,0.986,��쓌,4.1,��
2016/10/14,16:50,1.154,1.954,1.360,2.138,1.509,0.605,1.073,0.987,��,3.9,��
2016/10/14,17:00,1.154,1.955,1.362,2.138,1.508,0.603,1.072,0.987,��,3.6,��
2016/10/14,17:10,1.157,1.951,1.359,2.140,1.506,0.606,1.072,0.986,��,3.9,��
2016/10/14,17:20,1.158,1.951,1.359,2.139,1.510,0.605,1.073,0.986,��,3.3,��
2016/10/14,17:30,1.158,1.950,1.362,2.138,1.510,0.605,1.069,0.987,��,3.6,��
2016/10/14,17:40,1.155,1.950,1.360,2.141,1.512,0.604,1.071,0.985,��,4.1,��
2016/10/14,17:50,1.160,1.951,1.358,2.139,1.511,0.602,1.071,0.986,��,4.4,��
2016/10/14,18:00,1.157,1.949,1.360,2.139,1.509,0.603,1.072,0.987,��,4.6,��
2016/10/14,18:10,1.156,1.949,1.359,2.138,1.509,0.604,1.072,0.986,��,4.6,��
2016/10/14,18:20,1.155,1.950,1.359,2.138,1.507,0.605,1.072,0.986,��,4.9,��
2016/10/14,18:30,1.156,1.950,1.358,2.137,1.510,0.603,1.072,0.984,��,5.0,��
2016/10/14,18:40,1.155,1.950,1.359,2.136,1.510,0.604,1.071,0.987,��,5.8,��
2016/10/14,18:50,1.156,1.948,1.361,2.137,1.509,0.602,1.072,0.985,��,6.3,��
2016/10/14,19:00,1.155,1.949,1.361,2.138,1.508,0.604,1.072,0.985,��,6.9,��
2016/10/14,19:10,1.156,1.951,1.360,2.138,1.510,0.604,1.070,0.985,��,6.6,��
2016/10/14,19:20,1.156,1.949,1.359,2.138,1.511,0.606,1.070,0.986,��,6.7,��
2016/10/14,19:30,1.155,1.949,1.359,2.136,1.508,0.603,1.070,0.987,��,6.4,��
2016/10/14,19:40,1.155,1.948,1.358,2.139,1.509,0.604,1.071,0.987,��,6.9,��
2016/10/14,19:50,1.155,1.948,1.359,2.138,1.509,0.602,1.072,0.984,��,6.9,��
2016/10/14,20:00,1.154,1.950,1.357,2.139,1.509,0.604,1.070,0.987,��,6.6,��
2016/10/14,20:10,1.151,1.947,1.360,2.135,1.509,0.601,1.069,0.987,��쐼,6.3,��
2016/10/14,20:20,1.154,1.948,1.359,2.137,1.508,0.602,1.071,0.988,��쐼,6.3,��
2016/10/14,20:30,1.155,1.947,1.357,2.140,1.510,0.602,1.073,0.986,��쐼,5.8,��
2016/10/14,20:40,1.153,1.949,1.362,2.137,1.510,0.604,1.071,0.985,�쐼,5.2,��
2016/10/14,20:50,1.154,1.951,1.359,2.137,1.507,0.603,1.070,0.986,�쐼,4.4,��
2016/10/14,21:00,1.155,1.949,1.358,2.137,1.508,0.602,1.070,0.985,�쐼,4.4,��
2016/10/14,21:10,1.157,1.947,1.360,2.139,1.507,0.604,1.072,0.986,�쐼,4.7,��
2016/10/14,21:20,1.155,1.947,1.359,2.139,1.507,0.603,1.071,0.985,��쐼,5.0,��
2016/10/14,21:30,1.155,1.947,1.358,2.140,1.507,0.604,1.072,0.987,�쐼,4.5,��
2016/10/14,21:40,1.154,1.949,1.358,2.139,1.507,0.602,1.071,0.986,�쐼,4.6,��
2016/10/14,21:50,1.155,1.948,1.361,2.138,1.508,0.602,1.071,0.986,�쐼,4.6,��
2016/10/14,22:00,1.154,1.945,1.358,2.137,1.505,0.603,1.070,0.986,�쐼,3.6,��
2016/10/14,22:10,1.155,1.946,1.359,2.136,1.506,0.602,1.072,0.987,���쐼,2.9,��
2016/10/14,22:20,1.154,1.948,1.357,2.135,1.507,0.603,1.071,0.985,���쐼,4.1,��
2016/10/14,22:30,1.154,1.944,1.357,2.137,1.507,0.604,1.070,0.984,���쐼,3.9,��
2016/10/14,22:40,1.157,1.944,1.358,2.136,1.506,0.603,1.072,0.984,��,3.8,��
2016/10/14,22:50,1.153,1.947,1.358,2.137,1.507,0.601,1.070,0.986,��,2.2,��
2016/10/14,23:00,1.154,1.947,1.358,2.137,1.509,0.603,1.071,0.985,�k��,1.5,��
2016/10/14,23:10,1.153,1.945,1.356,2.134,1.507,0.601,1.071,0.986,�k,0.6,��
2016/10/14,23:20,1.153,1.945,1.358,2.137,1.508,0.601,1.070,0.986,-,CALM,��
2016/10/14,23:30,1.153,1.948,1.355,2.136,1.504,0.601,1.069,0.985,�쐼,1.2,��
2016/10/14,23:40,1.154,1.948,1.355,2.136,1.506,0.602,1.071,0.987,���쐼,2.0,��
2016/10/14,23:50,1.154,1.944,1.354,2.136,1.508,0.602,1.069,0.985,��,2.6,��
